[[{"header":{"parameterUnit":"m.s-1","parameterCategory":1,"la1":30.2991,"la2":30.254,"lo1":-89.0895,"lo2":-89.0444,"dy":0.0017,"dx":0.0017,"nx":28,"ny":28,"refTime":"2025-07-26T21:00:00:Z","depth":0,"parameterNumber":2,"parameterNumberName":"U-component_of_WINDS"},"data":[0,0,0,0,0,0,0,0,0,0,0,0,0,0,0,0,0,0,0,0,0,0,0,0,0,0,0,0,0,0,0,0,0,0,0,0,0,0,0,0,0,0,0,0,0,0,0,0,0,0,0,0,0,0,0,0,0,0,-2.9445,-2.9446,0,-2.9541,-2.9543,-2.9544,-2.9587,-2.9587,-2.9587,-2.9586,-2.9681,-2.9683,-2.9686,0,0,0,0,0,0,0,0,0,0,0,0,0,-2.9296,-2.9298,-2.9445,-2.9446,-2.9448,-2.9541,-2.9543,-2.9544,-2.9587,-2.9587,-2.9587,-2.9586,-2.968,-2.9683,-2.9686,0,0,0,0,0,0,0,0,0,0,0,0,0,-2.9373,-2.9299,-2.9445,-2.948,-2.9485,-2.9541,-2.9543,-2.9544,-2.9587,-2.9587,-2.9587,-2.9586,-2.9679,-2.9683,-2.9687,-2.9714,0,0,-2.9699,-2.97,0,0,0,0,0,0,0,0,-2.9369,-2.9378,-2.9474,-2.9478,-2.9483,-2.9552,-2.9525,-2.9601,-2.9587,-2.9548,-2.9586,-2.9586,-2.9638,-2.9645,-2.9663,-2.9718,-2.9722,-2.9699,-2.9701,-2.9703,-2.9704,0,0,0,0,0,0,0,-2.9363,-2.9375,-2.9483,-2.9475,-2.9481,-2.9491,-2.9501,-2.9539,-2.9592,-2.9551,-2.9555,-2.9566,-2.964,-2.966,-2.9666,-2.9724,-2.9699,-2.9702,-2.9705,-2.9706,-2.9807,-2.9807,0,0,0,0,0,0,-2.9353,-2.937,-2.948,-2.9486,-2.9424,-2.9493,-2.9505,-2.953,-2.9592,-2.9602,-2.9566,-2.9567,-2.9653,-2.9661,-2.9669,-2.9706,-2.9703,-2.9707,-2.9709,-2.9806,-2.9807,-2.9807,0,0,0,0,0,0,-2.9349,-2.9362,-2.9476,-2.9429,-2.9444,-2.9496,-2.9523,-2.9532,-2.9551,-2.9603,-2.9612,-2.9576,-2.9653,-2.9664,-2.9703,-2.971,-2.9708,-2.9712,-2.9806,-2.9806,-2.9807,-2.9779,0,0,0,0,0,0,-2.9345,-2.9361,-2.9372,-2.9429,-2.9447,-2.9509,-2.9524,-2.9534,-2.9558,-2.9561,-2.9615,-2.9624,-2.9654,-2.9697,-2.9707,-2.9715,-2.9715,-2.9805,-2.9806,-2.9807,-2.9779,-2.9778,-2.9777,0,0,0,0,0,-2.9339,-2.9359,-2.9372,-2.9385,-2.9462,-2.9509,-2.9519,-2.9555,-2.9559,-2.957,-2.9604,-2.9622,-2.9708,-2.9701,-2.9712,-2.9722,-2.9805,-2.9806,-2.9807,-2.978,-2.9779,-2.9777,0,0,0,0,0,0,-2.93,-2.9367,-2.9383,-2.9422,-2.946,-2.9517,-2.9532,-2.9552,-2.9588,-2.959,-2.9631,-2.9642,-2.9678,-2.9704,-2.9695,-2.9752,-2.9758,-2.9761,-2.9734,-2.9733,-2.9732,-2.9725,-2.9718,0,0,0,0,0,-2.9296,-2.933,-2.9386,-2.9416,-2.9434,-2.948,-2.9502,-2.9526,-2.9566,-2.9582,-2.9618,-2.9656,-2.9691,-2.9713,-2.9749,-2.9783,-2.9796,-2.9796,-2.9795,-2.9794,-2.9796,-2.9817,-2.9817,-2.9809,-2.9809,-2.9809,0,0,-2.9288,-2.9329,-2.9348,-2.9409,-2.9441,-2.9474,-2.9493,-2.9527,-2.9552,-2.9587,-2.9626,-2.9654,-2.9699,-2.9736,-2.9754,-2.9759,-2.9801,-2.9795,-2.9793,-2.9796,-2.9817,-2.9818,-2.9819,-2.981,-2.981,-2.981,0,0,-2.9291,-2.9325,-2.9354,-2.9386,-2.9435,-2.9466,-2.9473,-2.9527,-2.9547,-2.9588,-2.9615,-2.9645,-2.9705,-2.9736,-2.9759,-2.9775,-2.9793,-2.9785,-2.9779,-2.9799,-2.98,-2.9801,-2.9807,-2.9808,-2.9787,-2.9787,-2.9787,0,-2.9274,-2.9327,-2.9366,-2.9399,-2.9425,-2.946,-2.9489,-2.9518,-2.9575,-2.9592,-2.9596,-2.9673,-2.9706,-2.9751,-2.9755,-2.9773,-2.9781,-2.9779,-2.9797,-2.9798,-2.9799,-2.9805,-2.9807,-2.9785,-2.9786,-2.9786,-2.9786,0,-2.9304,-2.934,-2.9357,-2.9414,-2.9442,-2.9472,-2.9515,-2.9539,-2.956,-2.959,-2.9631,-2.9672,-2.9716,-2.9729,-2.9749,-2.9777,-2.9778,-2.9789,-2.9796,-2.9798,-2.9805,-2.9807,-2.9784,-2.9784,-2.9784,-2.9785,0,0,-2.9284,-2.9363,-2.9369,-2.9395,-2.9452,-2.948,-2.9512,-2.9558,-2.9577,-2.9616,-2.9643,-2.9694,-2.9705,-2.9732,-2.9756,-2.9774,-2.9784,-2.9783,-2.9785,-2.9782,-2.9817,-2.9809,-2.9811,-2.9797,-2.9797,-2.9798,-2.9814,0,-2.9295,-2.9356,-2.9392,-2.9438,-2.9471,-2.9505,-2.9533,-2.9571,-2.96,-2.9632,-2.9663,-2.9699,-2.971,-2.9727,-2.9745,-2.9779,-2.9792,-2.9778,-2.9822,-2.9823,-2.981,-2.9814,-2.9805,-2.9818,-2.9816,-2.9817,-2.9817,0,-2.9316,-2.9355,-2.9405,-2.9459,-2.9475,-2.9499,-2.9544,-2.9574,-2.9617,-2.9637,-2.9668,-2.9693,-2.9728,-2.9732,-2.978,-2.977,-2.979,-2.981,-2.9811,-2.9816,-2.982,-2.9819,-2.9823,-2.9825,-2.9821,-2.9821,-2.9821,0,-2.9297,-2.9362,-2.9401,-2.9422,-2.9486,-2.9503,-2.953,-2.9574,-2.9599,-2.9637,-2.9654,-2.9695,-2.9718,-2.9749,-2.9785,-2.9785,-2.9829,-2.9837,-2.9846,-2.9845,-2.9854,-2.9853,-2.9861,-2.9867,-2.9867,-2.9867,-2.9866,0,-2.9305,-2.9334,-2.9393,-2.9417,-2.945,-2.9491,-2.9523,-2.9552,-2.9591,-2.962,-2.9651,-2.9678,-2.9723,-2.9755,-2.9783,-2.9819,-2.9829,-2.9845,-2.9852,-2.9843,-2.9841,-2.9856,-2.9856,-2.9867,-2.9867,-2.9867,-2.9867,0,-2.9289,-2.933,-2.9374,-2.9432,-2.9447,-2.9469,-2.9518,-2.9542,-2.9573,-2.961,-2.9621,-2.9668,-2.9708,-2.9747,-2.9799,-2.9818,-2.9853,-2.9863,-2.9839,-2.9843,-2.9851,-2.985,-2.9869,-2.9874,-2.9876,-2.9876,-2.9876,0,-2.9292,-2.9316,-2.9376,-2.9399,-2.9426,-2.9462,-2.9488,-2.9529,-2.9555,-2.9607,-2.9624,-2.9666,-2.9702,-2.9763,-2.9802,-2.9843,-2.9853,-2.9857,-2.9859,-2.9849,-2.9854,-2.9852,-2.9854,-2.9856,-2.9856,-2.9855,-2.9855,0,-2.9293,-2.9312,-2.9349,-2.9394,-2.9425,-2.9461,-2.9499,-2.9515,-2.9564,-2.9591,-2.9633,-2.9661,-2.9715,-2.9756,-2.9802,-2.9829,-2.985,-2.9855,-2.9859,-2.9849,-2.9835,-2.9843,-2.9836,-2.9854,-2.9854,-2.9854,-2.9854,-2.9854,-2.9287,-2.9309,-2.9356,-2.9397,-2.943,-2.9464,-2.949,-2.9524,-2.956,-2.9609,-2.9631,-2.9672,-2.9715,-2.9779,-2.9806,-2.9838,-2.9844,-2.985,-2.9851,-2.9852,-2.985,-2.983,-2.9847,-2.9847,-2.9847,-2.9847,-2.9847,0,-2.9289,-2.9321,-2.9358,-2.9411,-2.9443,-2.9461,-2.9504,-2.9529,-2.9566,-2.9605,-2.964,-2.9688,-2.9729,-2.9771,-2.9814,-2.9832,-2.9843,-2.9842,-2.9841,-2.9847,-2.9843,-2.9835,-2.9832,-2.9832,-2.9832,-2.9832,-2.9832,-2.9832,-2.9294,-2.9334,-2.9359,-2.9415,-2.9446,-2.9489,-2.9512,-2.9544,-2.9575,-2.9628,-2.9662,-2.969,-2.973,-2.9776,-2.9814,-2.9826,-2.984,-2.9836,-2.985,-2.9846,-2.9847,-2.9848,-2.9841,-2.9839,-2.9839,-2.9851,-2.9851,-2.9851]},{"header":{"parameterUnit":"m.s-1","parameterCategory":1,"la1":30.2991,"la2":30.254,"lo1":-89.0895,"lo2":-89.0444,"dy":0.0017,"dx":0.0017,"nx":28,"ny":28,"refTime":"2025-07-26T21:00:00:Z","depth":0,"parameterNumber":3,"parameterNumberName":"V-component_of_WINDS"},"data":[0,0,0,0,0,0,0,0,0,0,0,0,0,0,0,0,0,0,0,0,0,0,0,0,0,0,0,0,0,0,0,0,0,0,0,0,0,0,0,0,0,0,0,0,0,0,0,0,0,0,0,0,0,0,0,0,0,0,4.5176,4.5175,0,4.5065,4.5064,4.5063,4.4959,4.4958,4.4957,4.4956,4.4836,4.4834,4.4832,0,0,0,0,0,0,0,0,0,0,0,0,0,4.5293,4.5292,4.5176,4.5175,4.5173,4.5065,4.5064,4.5062,4.496,4.4958,4.4956,4.4955,4.4837,4.4835,4.4832,0,0,0,0,0,0,0,0,0,0,0,0,0,4.5218,4.5291,4.5176,4.5109,4.5102,4.5066,4.5064,4.5062,4.496,4.4958,4.4956,4.4954,4.4838,4.4835,4.4832,4.4851,0,0,4.4823,4.4821,0,0,0,0,0,0,0,0,4.5223,4.5214,4.512,4.5114,4.5106,4.5024,4.5061,4.4991,4.496,4.5014,4.4956,4.4953,4.49,4.4892,4.4875,4.4846,4.484,4.4822,4.4821,4.4819,4.4818,0,0,0,0,0,0,0,4.5228,4.5218,4.5132,4.5119,4.511,4.5083,4.507,4.5047,4.4968,4.5009,4.5001,4.499,4.4895,4.4878,4.4871,4.4839,4.4822,4.482,4.4818,4.4817,4.4819,4.4821,0,0,0,0,0,0,4.5244,4.5223,4.5135,4.5129,4.5161,4.5082,4.5068,4.5052,4.4969,4.4954,4.4991,4.4985,4.4884,4.4875,4.4867,4.4883,4.4819,4.4816,4.4815,4.4817,4.4819,4.4821,0,0,0,0,0,0,4.5247,4.5237,4.514,4.5174,4.5159,4.5082,4.5065,4.5051,4.5033,4.4956,4.494,4.4989,4.4882,4.4871,4.4856,4.4878,4.4815,4.4812,4.4815,4.4818,4.482,4.4918,0,0,0,0,0,0,4.5251,4.5239,4.5247,4.5175,4.5158,4.5133,4.5067,4.505,4.5029,4.502,4.4949,4.4935,4.488,4.4861,4.4853,4.4873,4.481,4.4813,4.4816,4.482,4.4912,4.4923,4.4933,0,0,0,0,0,4.5256,4.5277,4.5248,4.5238,4.5166,4.5135,4.5125,4.5063,4.5032,4.5038,4.4988,4.4937,4.4877,4.4861,4.4851,4.487,4.4811,4.4815,4.4819,4.4907,4.4921,4.4933,0,0,0,0,0,0,4.5352,4.5267,4.5233,4.5232,4.5192,4.5117,4.5123,4.5079,4.5045,4.5038,4.496,4.4945,4.4939,4.4902,4.4885,4.4884,4.4837,4.484,4.4908,4.492,4.493,4.4939,4.4808,0,0,0,0,0,4.5373,4.5356,4.5282,4.5289,4.527,4.5201,4.5185,4.5141,4.5094,4.5076,4.5025,4.498,4.4951,4.4934,4.4903,4.4907,4.4889,4.4915,4.4925,4.4934,4.4937,4.4936,4.4946,4.4835,4.4835,4.4835,0,0,4.5417,4.5368,4.5362,4.5307,4.527,4.5253,4.5187,4.5171,4.5157,4.5073,4.5056,4.5017,4.4962,4.4958,4.4953,4.4927,4.4964,4.494,4.4948,4.4945,4.4941,4.4952,4.4961,4.4838,4.4838,4.4837,0,0,4.5487,4.5449,4.545,4.5416,4.5362,4.5316,4.5316,4.5249,4.522,4.5203,4.514,4.5121,4.5073,4.5036,4.5011,4.507,4.5021,4.5061,4.5116,4.5116,4.5124,4.5132,4.5152,4.516,4.5064,4.5065,4.5065,0,4.5547,4.552,4.5456,4.5445,4.5422,4.5348,4.5348,4.5316,4.5255,4.524,4.5213,4.5152,4.5109,4.5094,4.5109,4.5092,4.5089,4.5069,4.5129,4.5135,4.5141,4.5159,4.5167,4.507,4.5069,4.5069,4.5068,0,4.5596,4.5579,4.5586,4.5531,4.5509,4.5503,4.5437,4.5422,4.5381,4.5337,4.532,4.5267,4.5224,4.5217,4.5176,4.5197,4.5183,4.5144,4.5095,4.5158,4.5174,4.518,4.5077,4.5075,4.5074,4.5073,0,0,4.5723,4.5633,4.5637,4.5611,4.5547,4.5531,4.5522,4.5482,4.547,4.543,4.542,4.5381,4.5345,4.5317,4.527,4.5271,4.532,4.5231,4.5228,4.5249,4.5339,4.5368,4.5378,4.5288,4.5289,4.529,4.5343,0,4.5781,4.5762,4.5705,4.5702,4.5685,4.5615,4.5606,4.5565,4.5524,4.5502,4.5456,4.543,4.5384,4.5367,4.5364,4.5315,4.5336,4.531,4.5275,4.5275,4.5291,4.5386,4.5417,4.547,4.5349,4.535,4.5351,0,4.5847,4.5814,4.5811,4.5748,4.5738,4.5732,4.5691,4.5671,4.5623,4.5593,4.5563,4.5512,4.5497,4.5453,4.543,4.5414,4.5396,4.537,4.537,4.5363,4.5316,4.5381,4.5485,4.5493,4.536,4.5359,4.5358,0,4.5939,4.5893,4.5885,4.5865,4.5792,4.5789,4.5758,4.5708,4.5688,4.5652,4.5637,4.5599,4.5578,4.5549,4.5489,4.5463,4.5472,4.5424,4.5446,4.5447,4.545,4.545,4.5552,4.5441,4.5441,4.544,4.544,0,4.601,4.601,4.5926,4.5921,4.5919,4.5853,4.5852,4.5814,4.577,4.5756,4.5692,4.5679,4.5601,4.5578,4.5531,4.5519,4.551,4.5484,4.5471,4.5489,4.5492,4.5476,4.547,4.5442,4.5442,4.5442,4.5441,0,4.6111,4.6055,4.6042,4.5974,4.5957,4.5959,4.59,4.5891,4.5848,4.583,4.5822,4.5752,4.5722,4.566,4.5612,4.558,4.558,4.5557,4.5597,4.5589,4.5614,4.5613,4.5708,4.5716,4.5601,4.5602,4.5603,0,4.616,4.6159,4.6092,4.6079,4.6051,4.603,4.601,4.5945,4.5926,4.5871,4.587,4.5836,4.5805,4.5761,4.5705,4.5668,4.5644,4.568,4.5638,4.5656,4.5644,4.5644,4.5643,4.5689,4.5691,4.5692,4.5693,0,4.6252,4.6225,4.6199,4.6164,4.6143,4.6111,4.6076,4.6069,4.5994,4.5976,4.5947,4.5924,4.5877,4.5843,4.5799,4.5764,4.5716,4.5707,4.571,4.5728,4.5751,4.5738,4.5622,4.5705,4.5703,4.5703,4.5702,4.5701,4.6328,4.6324,4.6277,4.625,4.6218,4.6187,4.6176,4.6132,4.6107,4.6065,4.6028,4.6001,4.5952,4.5888,4.5857,4.5835,4.5811,4.5815,4.5816,4.5818,4.5826,4.5756,4.5826,4.5826,4.5825,4.5825,4.5825,0,4.6416,4.6383,4.6359,4.6314,4.6293,4.6252,4.6212,4.6196,4.6175,4.6135,4.6107,4.6072,4.604,4.5983,4.5945,4.5938,4.5915,4.593,4.5929,4.5922,4.585,4.5851,4.5949,4.5949,4.5949,4.5949,4.5949,4.5949,4.6459,4.6451,4.6418,4.6392,4.6358,4.6334,4.6314,4.6285,4.6252,4.6218,4.6192,4.6155,4.6108,4.6066,4.6034,4.6018,4.6007,4.6029,4.6006,4.5939,4.5927,4.5916,4.5916,4.6027,4.6028,4.608,4.608,4.6081]}]]